Theta_e
308 307 308 308 308 308 308 307 307 305 304 304 305 304 304 304 304 302 302 302 302 302 303 303 303 302 301 302 300 300 300 300 297 299 301 303 304 307 311 314 320 320 323
307 307 307 307 307 306 305 306 306 304 303 304 304 304 304 304 304 303 302 303 303 302 303 303 303 305 303 303 301 300 300 300 298 296 299 300 302 307 309 310 312 315 320
304 304 304 304 305 304 304 304 305 303 303 304 304 304 304 304 303 303 303 303 303 303 304 303 302 302 301 301 302 301 301 302 300 298 298 301 301 302 303 308 310 311 315
301 300 300 300 301 302 302 302 303 303 302 303 303 303 303 303 304 304 304 305 305 305 305 305 304 302 301 301 302 302 302 300 300 299 299 300 301 301 302 302 302 304 306
299 298 297 298 300 301 301 300 300 301 301 302 302 302 302 302 305 304 305 305 303 303 304 305 304 306 308 307 305 303 301 300 300 300 299 299 299 298 296 297 297 299 302
295 295 297 297 297 297 298 299 299 299 300 300 301 301 300 303 303 303 304 303 302 302 302 304 305 307 307 308 308 308 307 303 301 301 300 299 298 298 299 298 297 296 296
293 295 295 295 295 296 297 297 297 297 298 298 299 300 302 300 301 300 301 299 299 299 300 301 302 305 306 306 306 306 306 305 306 305 302 299 298 299 299 298 297 297 299
291 292 293 293 293 294 294 295 296 296 297 297 299 300 300 301 300 297 298 296 296 297 298 300 300 301 303 303 303 303 304 305 305 305 305 304 302 301 299 299 298 298 301
289 290 291 292 292 293 294 296 296 295 297 301 302 302 297 297 297 295 295 295 294 294 297 298 299 300 300 298 300 300 300 302 306 304 302 301 299 298 301 301 299 299 298
289 289 290 294 294 294 296 295 298 299 300 300 299 296 298 294 294 294 294 292 291 293 295 297 299 300 297 298 299 299 298 300 303 305 304 301 300 301 300 302 302 300 299
289 289 289 292 292 294 295 296 294 295 296 295 294 292 291 292 292 294 293 291 291 291 293 296 301 299 297 296 296 299 300 301 302 304 304 304 305 304 303 303 303 302 299
289 288 288 289 292 294 294 292 291 289 288 289 289 288 289 290 293 292 291 291 292 293 294 298 301 297 295 296 300 297 294 295 299 301 303 303 303 304 305 306 307 305 305
288 287 290 292 292 293 293 290 289 287 286 288 289 288 287 290 290 291 291 291 293 294 296 297 296 295 296 298 297 296 299 300 298 299 299 301 304 305 306 306 308 308 306
286 287 288 292 291 292 292 291 289 288 286 287 287 287 288 288 288 289 289 291 293 294 295 299 297 296 296 295 296 297 298 299 300 301 301 302 304 304 304 306 305 306 306
285 286 286 286 287 290 291 291 290 289 288 287 287 288 287 286 287 289 289 289 290 291 294 294 293 293 293 292 292 293 294 295 295 300 303 303 303 304 304 306 306 307 305
285 285 284 286 286 288 289 290 291 291 290 289 289 288 288 289 289 289 289 289 289 290 291 289 290 289 290 289 289 289 291 291 292 295 301 303 305 306 307 309 310 307 306
284 285 286 288 287 286 288 287 287 290 291 289 288 288 288 287 288 288 288 289 288 289 288 287 287 288 288 288 287 287 287 289 291 292 294 300 304 305 305 307 309 311 309
285 289 286 285 285 285 285 286 286 285 284 284 287 286 287 287 287 287 287 288 287 287 287 287 286 287 287 287 286 286 287 287 288 289 290 293 296 304 307 309 310 310 311
286 285 286 286 286 285 284 284 284 283 282 283 283 283 285 285 285 285 285 285 284 284 285 286 286 286 286 286 285 285 285 285 286 287 288 290 292 296 302 310 309 300 306
285 287 286 284 284 283 283 282 282 281 281 281 281 280 281 281 280 280 281 281 282 283 284 284 285 285 285 285 284 284 284 284 284 285 286 288 290 293 300 312 312 311 312
284 284 284 283 282 282 280 280 280 280 279 279 279 281 281 279 278 278 279 280 280 281 281 283 283 283 283 284 283 282 283 283 283 284 285 286 288 292 301 314 314 314 313
283 283 282 281 281 280 279 279 279 279 278 278 278 280 280 279 278 278 279 279 279 280 281 281 282 282 282 282 281 281 281 281 281 283 284 285 289 296 300 311 315 313 311
282 282 281 281 280 280 279 279 279 278 278 277 278 278 278 278 277 277 278 278 279 279 279 280 280 280 281 282 282 281 281 280 281 283 282 285 290 294 298 308 314 312 309
281 281 280 280 280 278 278 277 277 279 279 278 278 278 278 277 277 277 278 278 278 278 279 279 279 279 280 281 281 282 281 282 283 283 284 287 289 292 296 306 310 308 306
279 279 279 278 278 277 276 277 277 278 278 278 278 279 279 277 277 277 278 278 278 278 278 279 279 279 280 280 280 281 281 281 282 282 285 288 290 290 293 301 310 308 307
280 280 279 277 278 277 277 276 277 277 278 278 277 278 279 276 277 277 277 278 278 278 279 279 279 279 280 280 280 280 281 281 281 282 284 286 288 288 289 295 304 310 308
Wind_Speed
6 5 7 5 5 5 4 3 4 3 3 2 2 3 4 5 6 5 6 6 6 7 7 8 10 7 5 6 4 6 7 7 11 10 9 9 13 13 13 14 12 11 10
6 6 5 4 4 4 2 3 3 4 1 2 3 4 5 5 6 6 6 6 7 8 9 9 10 8 11 9 7 10 9 9 9 15 11 8 9 9 11 13 10 12 10
7 6 5 3 1 2 2 2 2 1 1 2 3 5 6 6 6 6 6 6 7 8 9 10 12 11 12 10 11 10 9 9 9 9 11 8 7 7 12 10 9 7 8
6 7 7 7 6 4 4 5 5 2 2 3 5 5 5 6 5 7 6 7 9 9 10 10 12 12 14 14 12 13 11 10 10 9 9 9 9 8 6 9 10 8 10
7 6 6 6 7 6 6 5 4 3 4 5 6 6 6 6 5 7 9 9 9 11 11 13 14 18 26 21 12 13 12 10 10 10 10 8 8 9 9 6 6 8 10
5 5 5 6 6 6 5 6 5 5 6 5 6 6 6 4 9 12 12 9 9 12 13 14 14 22 21 25 26 28 23 15 15 11 9 9 12 9 10 9 8 6 7
6 6 6 6 5 6 6 5 5 6 5 5 6 6 6 6 10 10 14 9 11 11 13 14 15 13 19 17 20 24 24 28 28 18 15 13 12 12 9 10 8 7 8
7 6 6 6 5 5 5 5 5 4 5 5 6 6 5 6 10 12 16 10 11 13 14 15 15 18 17 17 16 15 16 17 18 14 16 17 14 11 9 8 10 8 8
7 5 5 5 5 5 6 6 5 5 5 4 4 6 6 6 10 12 15 11 12 14 13 15 15 17 20 22 16 16 16 15 16 20 18 17 15 13 10 4 8 8 10
6 6 5 5 6 6 6 6 5 5 4 4 5 6 8 6 10 12 13 9 12 11 14 14 19 15 19 24 15 12 14 15 12 12 10 14 17 15 16 12 9 8 8
5 5 5 6 5 4 6 5 6 6 6 6 5 5 6 7 8 11 17 10 9 11 11 12 11 20 24 25 18 7 10 11 12 9 8 7 7 8 8 10 12 11 10
6 6 5 5 5 5 5 6 7 6 5 5 5 5 5 8 11 12 18 17 17 9 11 10 12 20 21 21 14 20 14 9 6 7 7 8 8 9 9 8 10 11 12
6 6 6 6 6 5 5 6 5 6 5 5 6 7 8 8 8 19 18 19 16 10 8 15 17 19 15 14 19 20 18 5 5 6 7 8 8 7 7 6 8 11 13
4 5 5 6 5 5 4 5 5 6 6 6 7 8 8 8 10 11 11 10 14 12 15 10 13 13 9 14 16 15 11 11 11 7 6 5 4 4 6 7 7 8 8
3 3 3 3 5 4 4 3 5 6 7 6 7 6 8 9 11 16 15 10 11 13 11 9 10 13 14 15 14 14 12 13 12 12 5 4 4 5 6 7 8 7 7
5 4 2 1 3 3 4 4 4 5 7 11 10 8 6 11 17 20 19 15 17 17 8 10 12 12 13 14 14 15 13 16 13 12 10 5 4 4 6 5 9 11 8
5 5 4 4 4 4 3 4 5 6 8 8 13 12 16 17 18 20 19 15 12 13 10 11 11 12 12 13 13 13 14 13 14 11 11 11 6 5 6 5 5 7 6
6 12 5 4 5 6 6 6 5 6 6 7 13 14 17 20 20 21 20 12 9 12 10 10 11 11 12 13 13 13 14 14 13 12 12 11 10 10 6 5 3 1 4
6 5 6 6 6 8 7 7 6 6 6 6 8 13 16 20 18 19 21 11 10 11 11 10 11 11 11 12 13 13 14 13 13 13 12 11 11 10 10 3 4 5 5
6 12 10 6 6 7 7 7 6 6 7 7 7 9 10 11 11 12 11 11 11 11 11 11 11 11 12 12 13 13 13 15 15 13 13 12 12 10 10 4 4 6 6
5 6 11 7 7 7 6 6 6 6 6 6 6 8 13 8 9 9 10 11 11 11 11 11 11 11 12 12 13 13 14 14 15 14 14 13 13 13 13 5 3 5 6
5 6 6 6 6 6 6 6 6 6 6 6 5 7 12 8 8 9 10 10 10 10 9 11 10 11 12 13 14 14 15 16 17 17 16 15 14 13 12 7 4 6 7
5 6 5 6 6 7 5 5 5 5 4 5 6 7 8 7 8 8 10 9 10 10 10 10 11 11 11 12 13 14 14 16 17 17 17 16 14 13 12 9 6 7 8
5 5 5 4 5 4 4 4 4 7 6 6 6 6 7 7 8 9 10 8 9 9 10 10 11 16 14 13 12 14 15 15 15 16 22 16 15 17 13 9 7 9 9
4 4 4 4 4 4 4 4 5 5 5 6 6 6 6 7 7 8 11 10 10 10 13 12 11 16 18 20 21 22 23 26 22 24 15 17 18 20 16 13 6 7 9
4 4 4 3 4 4 4 4 5 5 6 6 7 7 6 7 6 7 8 10 11 11 13 10 14 20 20 16 20 23 24 27 24 27 17 15 16 16 16 16 16 4 7
Wind_Direction
88 96 103 104 104 101 106 121 148 154 185 214 250 307 313 316 310 311 300 292 290 292 290 283 284 269 254 260 247 254 254 254 272 282 279 289 290 291 291 289 299 308 301
74 82 83 106 127 135 154 180 185 198 243 302 310 306 304 306 303 300 290 291 288 289 285 285 282 282 277 269 256 250 248 252 259 272 275 276 273 281 291 287 284 280 284
68 76 62 52 213 222 235 33 66 68 10 339 322 313 318 310 306 294 276 276 269 266 272 274 275 274 274 269 262 256 253 256 252 256 268 275 272 274 276 277 273 281 280
63 59 56 38 38 50 85 83 77 57 9 322 308 313 308 300 290 286 283 288 284 278 278 280 278 271 269 271 267 263 261 257 255 253 257 265 275 266 259 277 281 281 287
63 58 48 38 39 42 45 42 17 354 335 328 323 316 302 301 299 309 313 306 299 300 282 271 269 267 267 261 259 258 255 253 256 258 260 260 264 279 269 266 282 287 282
70 62 48 38 32 19 6 356 355 346 335 325 320 307 307 310 308 316 331 315 301 286 290 291 281 279 273 270 266 259 255 255 246 244 250 253 258 253 269 272 274 283 302
51 38 36 22 16 359 343 337 336 327 319 316 308 310 311 320 323 339 334 318 305 303 297 292 292 289 289 283 278 272 261 251 248 255 254 247 253 243 243 264 258 261 268
49 31 19 4 351 336 329 322 310 306 311 308 299 314 328 327 341 345 340 317 310 303 296 293 289 286 284 284 282 280 274 260 246 239 242 248 246 247 220 233 255 268 272
32 14 1 342 322 326 326 326 323 310 307 311 310 348 343 332 349 350 343 328 314 303 302 300 289 287 284 284 282 275 273 269 253 239 232 239 241 229 220 202 249 260 275
15 358 337 339 347 333 325 320 309 321 334 350 4 2 343 336 342 343 343 326 307 314 308 301 297 284 298 306 302 280 267 261 263 248 228 235 240 243 229 227 240 239 262
7 352 343 349 335 321 330 8 353 2 355 1 7 339 330 328 326 334 340 325 319 310 303 303 306 316 321 320 315 277 280 291 277 258 245 238 231 223 226 215 221 226 234
2 356 351 345 352 360 24 17 17 11 357 346 355 338 336 332 332 342 338 326 317 306 301 300 310 318 322 321 339 336 296 291 263 257 247 234 231 230 230 226 210 212 228
8 353 3 13 13 9 30 28 22 9 357 342 358 348 342 339 340 346 340 332 328 330 314 306 317 330 332 329 349 346 349 317 260 249 241 246 240 234 232 221 216 220 229
3 347 350 21 37 23 28 36 40 23 11 13 5 355 347 348 350 346 340 339 344 344 334 334 343 330 332 358 356 356 349 341 333 267 259 262 256 237 229 223 224 218 222
345 322 321 353 8 12 23 50 59 51 39 20 12 354 354 353 347 345 343 342 345 336 339 348 359 4 0 357 355 349 347 348 345 331 271 263 250 235 234 221 224 218 215
8 341 322 352 357 10 11 11 49 91 48 35 16 19 357 350 351 357 349 340 347 341 8 9 7 5 1 353 351 343 347 346 344 334 323 280 273 258 261 246 245 202 201
34 12 38 36 14 20 17 25 22 13 41 29 20 13 13 2 358 358 357 348 355 7 20 15 6 1 353 351 348 344 339 339 334 334 332 336 289 251 259 281 298 161 176
37 39 41 25 38 39 37 40 36 29 14 12 18 13 14 8 4 4 3 359 10 21 15 8 5 355 352 351 345 342 337 338 342 338 337 335 330 322 260 260 275 206 155
40 35 38 38 41 45 37 33 32 26 17 14 11 15 6 8 7 12 10 17 10 10 3 3 4 355 352 351 344 342 339 338 336 334 335 332 327 322 310 234 220 211 159
44 44 52 42 41 40 35 32 29 22 20 15 15 13 358 2 11 9 10 8 7 5 1 359 1 356 349 352 347 342 342 342 342 340 335 329 324 316 307 296 194 165 166
47 47 48 48 41 41 35 30 24 26 20 12 3 1 7 11 7 6 5 2 2 360 356 353 358 354 352 350 349 347 345 340 338 336 332 330 324 319 322 288 155 145 115
57 59 57 56 50 46 38 30 26 23 18 8 359 2 8 13 10 4 4 358 352 353 351 351 353 356 353 350 351 346 345 343 339 336 334 328 325 325 323 321 126 122 125
61 58 50 58 51 48 35 27 23 14 5 2 4 8 9 9 5 2 1 352 348 348 349 352 356 355 355 356 352 349 346 345 336 331 328 326 331 337 334 317 124 119 127
58 50 47 57 52 36 26 14 4 12 10 6 3 9 10 4 358 355 360 349 347 348 349 354 359 357 354 355 351 347 348 343 337 335 333 332 336 339 340 350 78 105 104
73 63 52 55 45 34 17 6 1 359 1 7 3 356 12 356 354 354 359 355 353 354 356 356 355 354 355 354 355 349 343 349 346 342 337 337 347 355 351 349 65 81 101
77 71 67 59 46 33 25 21 14 6 3 6 359 349 8 351 350 350 351 351 356 355 354 353 352 354 353 354 352 350 348 348 351 347 349 351 355 358 354 360 5 71 101